GW5211 Weather Reports


Display with metric or nautical units.
time (UTC)temp
F
wind
direction
speed
MPH
gust
MPH
rain 1hr
in
rain 24hr
in
rain mn
in
humidity
%
barometer
mb
20260504173004 82 110 2.0 8.0 0.00 0.00 0.00 47 1014.3
20260504172504 82 38 2.0 7.0 0.00 0.00 0.00 47 1014.4
20260504172004 82 126 5.0 8.0 0.00 0.00 0.00 48 1014.5
20260504171503 82 114 3.0 9.0 0.00 0.00 0.00 48 1014.4
20260504171004 81 69 4.0 8.0 0.00 0.00 0.00 49 1014.6
20260504170504 81 76 4.0 8.0 0.00 0.00 0.00 48 1014.6
20260504140504 75 94 5.0 10.0 0.00 0.00 0.00 64 1015.1
20260504130504 72 43 3.0 6.0 0.00 0.00 0.00 73 1014.8
20260504100504 63 87 0.0 2.0 0.00 0.00 0.00 87 1015.4
20260504082004 65 127 1.0 3.0 0.00 0.00 0.00 84 1015.4
20260504081004 65 10 1.0 5.0 0.00 0.00 0.00 83 1015.2
20260504080503 65 41 2.0 5.0 0.00 0.00 0.00 83 1015.2
20260504050504 69 51 1.0 2.0 0.00 0.00 0.00 79 1016.2
20260504050004 70 28 0.0 3.0 0.00 0.00 0.00 79 1016.2
20260504045503 70 98 1.0 3.0 0.00 0.00 0.00 78 1016.2
20260504045004 70 75 1.0 3.0 0.00 0.00 0.00 78 1016.3
20260504044504 70 76 2.0 3.0 0.00 0.00 0.00 78 1016.1
20260504044004 70 73 2.0 6.0 0.00 0.00 0.00 78 1015.9
20260504043504 71 75 3.0 6.0 0.00 0.00 0.00 78 1015.9
20260504043004 71 59 2.0 7.0 0.00 0.00 0.00 78 1016.1
20260504042504 71 74 2.0 5.0 0.00 0.00 0.00 77 1016.3
20260504042004 71 72 2.0 6.0 0.00 0.00 0.00 77 1016.4
20260504041504 71 90 2.0 7.0 0.00 0.00 0.00 76 1016.5
20260504041004 71 79 1.0 3.0 0.00 0.00 0.00 76 1016.4
20260504040004 71 48 2.0 5.0 0.00 0.35 0.00 75 1016.5
20260504035504 71 60 2.0 5.0 0.00 0.35 0.00 75 1016.5
20260504035004 71 60 1.0 3.0 0.00 0.35 0.00 75 1016.5
20260504034504 71 61 2.0 5.0 0.00 0.35 0.00 74 1016.4
20260504034004 71 73 1.0 5.0 0.00 0.35 0.00 74 1016.5
20260504033504 71 31 1.0 5.0 0.00 0.35 0.00 73 1016.5
20260504032504 71 23 1.0 3.0 0.00 0.35 0.00 73 1016.5
20260504032004 71 35 1.0 3.0 0.00 0.35 0.00 73 1016.5
20260504031503 71 17 2.0 3.0 0.00 0.35 0.00 72 1016.4
20260504031004 71 26 1.0 2.0 0.00 0.35 0.00 72 1016.6
20260504030504 72 49 1.0 3.0 0.00 0.35 0.00 71 1016.6
20260504030004 72 27 2.0 6.0 0.00 0.35 0.00 70 1016.4
20260504025504 72 50 2.0 5.0 0.00 0.35 0.00 69 1016.2
20260504025004 72 66 2.0 5.0 0.00 0.35 0.00 70 1016.1
20260504024504 71 51 1.0 5.0 0.00 0.35 0.00 70 1016.1
20260504024004 71 57 2.0 5.0 0.00 0.35 0.00 71 1016.1
20260504023004 71 73 3.0 6.0 0.00 0.35 0.00 72 1016.1
20260504022504 72 53 1.0 3.0 0.00 0.35 0.00 72 1016.1
20260504022004 72 70 2.0 3.0 0.00 0.35 0.00 71 1016.1
20260504021504 72 0 2.0 5.0 0.00 0.35 0.00 71 1016.1
20260504021003 72 55 1.0 7.0 0.00 0.35 0.00 71 1015.9
20260504020504 72 51 2.0 3.0 0.00 0.35 0.00 71 1015.7
20260504015503 72 70 2.0 5.0 0.00 0.35 0.00 71 1015.8
20260504015004 73 77 2.0 6.0 0.00 0.35 0.00 70 1015.7
20260504014504 73 125 2.0 7.0 0.00 0.35 0.00 70 1015.6
20260504014004 73 65 2.0 7.0 0.00 0.35 0.00 70 1015.5
20260504013504 73 19 3.0 6.0 0.00 0.35 0.00 71 1015.4
20260504013004 73 26 2.0 5.0 0.00 0.35 0.00 71 1015.5
20260504012504 73 37 2.0 5.0 0.00 0.35 0.00 70 1015.5
20260504011504 73 52 2.0 5.0 0.00 0.35 0.00 70 1015.4
20260504011004 74 32 2.0 7.0 0.00 0.35 0.00 70 1015.2
20260504010504 74 18 5.0 9.0 0.00 0.35 0.00 69 1015.0
20260504010004 74 15 3.0 9.0 0.00 0.35 0.00 69 1015.1
20260504005504 74 1 6.0 10.0 0.00 0.35 0.00 68 1014.9
20260504005004 74 4 5.0 9.0 0.00 0.35 0.00 69 1014.9
20260504004503 74 5 4.0 9.0 0.00 0.35 0.00 68 1014.9
20260504004004 74 356 5.0 12.0 0.00 0.35 0.00 68 1014.8
20260504003504 74 356 3.0 12.0 0.00 0.35 0.00 67 1014.9
20260504003004 74 34 5.0 9.0 0.00 0.35 0.00 67 1014.8
20260504002504 74 348 4.0 9.0 0.00 0.35 0.00 67 1014.8
20260504002004 74 358 5.0 10.0 0.00 0.35 0.00 67 1014.7
20260504001503 74 347 4.0 12.0 0.00 0.35 0.00 67 1014.7
20260504001004 74 0 5.0 12.0 0.00 0.35 0.00 66 1014.8
20260504000504 74 332 3.0 9.0 0.00 0.35 0.00 66 1014.8
20260504000004 75 341 5.0 12.0 0.00 0.35 0.00 65 1014.6
20260503235004 75 328 5.0 8.0 0.00 0.35 0.00 65 1014.6
20260503234504 75 350 5.0 9.0 0.00 0.35 0.00 65 1014.6
20260503234004 75 358 5.0 13.0 0.00 0.35 0.00 64 1014.7
20260503233004 76 341 3.0 8.0 0.00 0.35 0.00 64 1014.6
20260503232503 76 335 3.0 7.0 0.00 0.35 0.00 63 1014.5
20260503231004 77 349 6.0 12.0 0.00 0.35 0.00 62 1014.5
20260503230503 77 344 6.0 10.0 0.00 0.35 0.00 62 1014.4
20260503225504 77 4 6.0 8.0 0.00 0.35 0.00 63 1014.4
20260503225004 77 13 3.0 6.0 0.00 0.35 0.00 63 1014.3
20260503224504 77 332 5.0 12.0 0.00 0.35 0.00 62 1014.4
20260503224003 77 329 5.0 10.0 0.00 0.35 0.00 62 1014.3
20260503223504 77 334 5.0 9.0 0.00 0.35 0.00 62 1014.3
20260503223004 77 299 5.0 9.0 0.00 0.35 0.00 61 1014.3
20260503222503 77 327 5.0 12.0 0.00 0.35 0.00 63 1014.5
20260503222004 78 325 6.0 10.0 0.00 0.35 0.00 62 1014.4
20260503221004 78 2 5.0 10.0 0.00 0.35 0.00 61 1014.3
20260503220504 78 336 3.0 9.0 0.00 0.36 0.00 61 1014.4
20260503220004 78 333 5.0 7.0 0.00 0.36 0.00 61 1014.2
20260503215504 78 328 5.0 9.0 0.00 0.36 0.00 60 1014.1
20260503215004 77 320 4.0 10.0 0.00 0.36 0.00 61 1014.1
20260503214504 78 343 5.0 9.0 0.00 0.37 0.00 60 1014.4
20260503214003 78 322 5.0 10.0 0.00 0.37 0.00 61 1014.5
20260503213504 78 355 3.0 7.0 0.00 0.37 0.00 60 1014.7
20260503213004 79 0 3.0 9.0 0.00 0.37 0.00 59 1014.7
20260503212503 79 323 5.0 9.0 0.00 0.38 0.00 60 1014.2
20260503212004 79 316 5.0 9.0 0.00 0.38 0.00 60 1014.2
20260503211504 79 332 5.0 10.0 0.00 0.39 0.00 60 1014.2
20260503210504 80 350 6.0 12.0 0.00 0.39 0.00 57 1013.9
20260503210004 80 7 4.0 12.0 0.00 0.39 0.00 57 1014.0
20260503205504 81 6 6.0 8.0 0.00 0.39 0.00 58 1014.0
20260503205004 82 32 2.0 7.0 0.00 0.39 0.00 54 1014.2
20260503204004 81 46 2.0 6.0 0.00 0.40 0.00 53 1013.5
20260503203504 81 133 3.0 8.0 0.00 0.41 0.00 52 1013.6
20260503203004 80 22 2.0 5.0 0.00 0.41 0.00 54 1013.8
20260503202504 80 349 1.0 6.0 0.00 0.41 0.00 53 1015.0
20260503202004 81 105 3.0 6.0 0.00 0.47 0.00 52 1014.8
20260503201503 80 107 2.0 6.0 0.00 0.47 0.00 53 1013.7
20260503201004 80 113 3.0 8.0 0.00 0.49 0.00 54 1013.7
20260503200504 80 152 1.0 3.0 0.00 0.50 0.00 55 1014.6
20260503200003 80 92 2.0 6.0 0.00 0.59 0.00 56 1015.4
20260503195504 79 97 2.0 6.0 0.00 0.59 0.00 55 1014.3
20260503195004 79 133 3.0 8.0 0.00 0.59 0.00 56 1014.8
20260503194504 80 107 2.0 6.0 0.00 0.59 0.00 57 1015.6
20260503194003 81 122 3.0 7.0 0.00 0.59 0.00 53 1014.7
20260503193004 79 109 1.0 5.0 0.00 0.60 0.00 57 1015.8
20260503191504 79 122 2.0 6.0 0.00 0.61 0.00 57 1014.7
20260503191004 79 115 2.0 6.0 0.00 0.61 0.00 57 1016.0
20260503190504 80 109 3.0 6.0 0.00 0.62 0.00 57 1014.8
20260503190004 80 170 2.0 6.0 0.00 0.64 0.00 55 1015.9
20260503185504 79 338 2.0 5.0 0.00 0.67 0.00 57 1015.6
20260503185004 79 114 2.0 7.0 0.00 0.72 0.00 56 1016.2
20260503184504 79 66 2.0 7.0 0.00 0.79 0.00 56 1015.7
20260503184004 80 6 2.0 8.0 0.00 0.87 0.00 56 1015.3
20260503183504 80 89 2.0 6.0 0.00 0.87 0.00 57 1016.6
20260503183003 80 87 3.0 7.0 0.00 0.87 0.00 56 1015.4
20260503182505 79 23 2.0 6.0 0.00 0.87 0.00 57 1016.0
20260503182005 79 85 3.0 9.0 0.00 0.88 0.00 57 1015.3
20260503181505 78 79 3.0 9.0 0.00 0.88 0.00 59 1016.6
20260503181004 79 123 2.0 9.0 0.00 0.88 0.00 57 1016.4
20260503180504 79 336 3.0 9.0 0.00 0.88 0.00 57 1015.7
20260503180004 80 101 3.0 7.0 0.00 0.88 0.00 56 1015.7
20260503175503 80 103 3.0 8.0 0.00 0.88 0.00 57 1015.3
20260503175004 79 99 2.0 7.0 0.00 0.88 0.00 58 1015.3
20260503174504 78 80 3.0 7.0 0.00 0.88 0.00 59 1016.0
20260503174004 78 65 3.0 9.0 0.00 0.88 0.00 59 1015.7
20260503173504 78 93 3.0 9.0 0.00 0.88 0.00 60 1015.5